User: anonymous   Login
Location: Unspecified
(0.0000°N, 0.0000°E)
Time: 18:19:48
(UTC+00:00)
Language:

ERNST - Orbit

View from above orbital plane
View from above orbital plane
View from above satellite
View from above satellite

Ground track
Ground track

The orbit is defined by the following mean orbital elements,

1 60528U          26145.21621735 +.00000000 +00000-0 +36601-3 0 00008
2 60528  97.3804 228.7754 0006245  33.2563 326.9073 15.38516704    08
Epoch (UTC): 25 May 2026 05:11:21
Eccentricity: 0.0006245
inclination: 97.3804°
perigee height: 446 km
apogee height: 455 km
right ascension of ascending node: 228.7754°
argument of perigee: 33.2563°
revolutions per day: 15.38516704
mean anomaly at epoch: 326.9073°

The dashed part of the orbit path shows where the satellite is in the earth's shadow,  

DLR